Wind_Speed
7 9 8 6 5 8 8 6 6 6 6 4 4 6 6 6 7 8 8 8 8 9 9 9 9 8 9 10 9 10 12 13 12 12 13 14 15 16 15 14 15 15 16
7 7 8 6 5 6 6 7 6 7 7 4 3 5 7 6 7 8 8 8 8 8 7 8 8 9 10 12 11 11 12 12 11 13 13 13 13 15 15 14 14 14 15
7 6 6 5 5 5 5 6 6 7 7 5 4 5 7 3 6 6 7 9 7 7 7 7 8 9 12 13 12 13 13 12 12 13 14 13 12 14 13 13 13 14 13
7 6 4 5 6 6 6 6 6 7 7 7 5 6 5 6 4 4 5 8 8 6 6 7 8 9 12 12 12 12 13 13 13 12 13 13 13 13 13 12 13 12 11
5 4 5 4 5 6 7 8 8 8 8 8 6 5 4 5 4 2 5 6 6 5 6 7 8 9 11 12 11 11 13 12 11 11 12 12 12 11 11 11 11 9 8
5 3 0 4 5 5 7 8 9 9 10 8 8 6 5 6 4 2 6 8 6 6 6 7 8 9 10 11 11 11 10 9 8 8 10 10 10 12 11 11 10 9 8
2 3 2 2 4 5 7 8 9 9 10 10 9 8 6 6 5 5 6 7 6 6 5 6 7 8 8 9 10 9 9 8 8 8 8 8 8 10 11 10 9 8 7
3 3 3 4 4 6 7 8 9 10 10 10 9 9 8 8 7 8 9 8 7 5 5 6 6 7 7 7 8 9 8 9 8 8 6 6 7 8 9 9 8 7 6
8 5 4 5 7 8 9 10 10 11 11 10 10 9 10 10 9 8 8 9 8 7 6 6 6 6 7 6 5 6 7 6 6 8 8 6 6 7 7 8 6 6 5
12 13 13 10 12 11 12 12 12 11 11 12 12 11 10 10 9 8 7 8 8 7 7 7 7 7 6 7 6 6 5 5 6 8 8 7 6 6 6 7 7 5 4
17 10 9 8 8 15 17 15 14 13 13 13 12 12 11 11 10 9 9 8 7 7 8 8 7 7 6 6 6 6 6 7 7 8 8 7 5 5 5 4 5 4 3
16 15 11 10 21 20 20 19 17 16 14 15 15 13 11 11 11 10 10 10 9 7 7 7 6 7 8 7 6 6 6 5 5 8 7 7 6 4 3 2 2 2 2
16 18 16 18 18 20 18 21 19 18 16 15 15 13 13 13 12 11 11 10 9 9 8 7 7 6 7 8 8 8 7 7 6 6 5 6 5 4 3 2 2 3 2
20 19 13 16 22 23 19 25 22 20 18 17 16 15 15 14 14 13 12 11 10 10 10 8 8 7 7 6 7 8 8 9 9 9 10 9 8 7 6 6 6 5 4
19 16 11 24 31 8 14 28 26 26 24 18 18 17 18 17 16 15 14 13 11 12 12 11 10 9 9 9 9 8 9 8 8 10 11 10 9 11 12 10 7 8 8
19 16 13 16 22 29 22 3 19 13 23 28 26 24 23 22 20 19 18 15 14 14 13 12 11 9 9 9 11 12 11 9 8 10 11 13 11 10 13 11 11 11 9
19 16 16 13 14 15 16 8 2 10 19 23 26 29 22 17 21 19 18 17 17 17 16 15 15 16 16 14 13 14 14 12 10 11 13 14 14 16 16 16 18 13 14
19 14 15 15 14 15 14 12 6 8 16 20 26 23 20 16 18 22 20 18 19 19 20 18 16 17 19 18 18 16 15 14 14 14 13 15 17 17 17 19 18 18 18
17 13 12 12 12 12 12 11 11 9 10 21 26 25 23 21 21 18 19 21 21 24 23 21 20 20 20 20 22 22 18 19 17 17 16 16 16 19 18 18 18 18 17
15 12 10 10 11 11 11 12 13 13 12 10 21 25 25 23 23 21 21 21 22 23 23 21 21 18 16 18 20 21 18 19 19 19 19 18 19 20 21 20 19 18 17
13 12 10 9 10 12 12 14 14 16 15 10 11 19 23 23 21 24 22 20 22 21 23 23 19 16 13 13 13 15 15 17 18 18 19 20 23 23 24 23 20 21 20
12 11 10 10 11 10 11 12 13 14 13 12 3 12 17 25 16 15 19 21 22 20 21 19 15 14 13 14 14 15 17 18 18 20 21 22 24 23 23 21 21 19 19
11 10 11 10 11 10 11 11 11 11 12 10 8 3 6 14 15 14 13 8 11 13 14 15 13 13 13 14 15 16 19 20 20 22 22 22 21 21 20 19 19 17 14
9 10 11 12 11 11 10 11 11 10 5 9 7 4 1 5 10 12 11 10 8 10 11 14 14 13 14 17 17 17 19 20 20 19 19 17 16 15 14 16 17 16 15
9 10 12 13 11 10 11 13 12 15 9 4 5 5 2 4 6 10 10 11 11 11 11 12 13 15 16 17 17 17 17 16 16 17 17 18 16 14 14 15 12 12 15
8 9 11 12 12 10 11 13 12 11 9 11 4 5 5 4 4 5 5 7 9 9 9 10 12 13 14 14 14 15 15 14 13 14 14 12 14 13 11 11 14 12 11
Wind_Direction
150 139 145 155 157 167 165 177 176 173 161 135 134 139 134 117 103 102 99 100 113 117 122 127 134 134 132 125 115 112 106 102 107 109 107 107 103 100 97 95 98 97 100
149 139 154 163 164 171 174 176 184 184 182 162 145 151 150 112 97 90 92 94 104 113 122 125 126 134 133 126 121 116 105 106 110 116 108 105 101 100 97 100 104 105 103
139 147 159 169 182 183 194 193 189 193 193 189 178 155 148 120 107 98 94 90 88 104 117 120 121 130 130 128 127 122 110 111 112 115 108 102 100 100 99 107 109 111 108
131 142 158 184 194 190 199 206 209 206 208 204 191 171 167 151 116 105 106 98 93 104 112 109 112 125 127 130 125 125 119 114 109 110 108 103 102 102 101 108 110 111 112
125 127 159 183 199 202 203 208 216 218 218 220 210 190 180 169 175 126 116 129 110 105 110 114 110 119 128 132 128 124 119 104 107 104 105 105 107 107 107 107 111 109 104
116 95 190 190 201 206 215 213 217 220 218 212 206 203 199 200 199 221 176 150 142 133 115 120 121 119 134 137 130 123 116 104 112 112 107 109 114 114 111 113 113 111 103
156 116 131 269 211 210 215 216 223 226 218 219 215 202 206 210 198 192 169 156 144 155 146 132 131 126 133 142 138 130 120 112 122 120 118 124 122 118 117 114 111 106 104
266 230 203 178 231 226 220 216 216 226 227 220 221 214 206 212 210 199 201 186 173 166 139 149 135 135 138 143 138 139 135 138 151 138 136 141 134 127 121 115 109 104 98
10 320 276 271 222 231 230 213 220 218 225 225 222 218 211 210 212 209 200 201 192 184 179 162 152 140 135 141 141 149 146 151 155 155 156 159 152 140 135 125 116 112 107
16 350 310 299 297 252 236 223 208 222 219 222 223 219 218 212 213 210 212 205 206 195 189 180 183 164 155 154 155 150 150 171 171 164 170 174 174 156 153 141 136 138 134
4 347 308 275 290 300 254 230 219 213 220 223 224 225 225 217 214 211 210 208 202 199 199 196 196 191 184 180 170 160 161 166 156 179 174 167 173 170 162 154 147 151 156
344 350 318 260 284 299 243 235 224 212 217 221 224 223 225 227 224 214 215 210 209 208 201 197 193 208 203 205 204 197 190 198 186 181 177 171 180 174 146 136 138 149 172
335 333 326 304 304 284 240 228 226 225 219 226 229 228 226 228 227 223 218 212 219 213 213 211 195 191 201 207 222 227 225 215 214 207 208 209 206 195 197 206 198 196 191
7 0 352 357 306 281 261 227 221 222 225 223 226 226 224 228 229 221 218 216 219 221 208 213 208 204 207 212 214 221 232 232 228 228 221 236 226 221 236 233 250 256 230
14 20 34 38 16 325 220 212 219 227 231 231 226 223 223 223 225 229 222 233 242 223 219 211 211 209 217 216 224 229 229 235 237 237 240 239 222 248 246 247 255 267 261
15 30 40 47 55 50 124 161 213 242 227 225 233 236 225 223 214 226 232 233 234 225 220 217 221 227 231 237 236 226 226 230 243 248 247 245 255 242 237 252 241 248 256
12 19 42 52 51 62 64 60 198 232 225 220 235 225 233 239 223 226 233 231 229 224 224 230 240 250 254 249 247 238 236 238 232 241 249 250 248 245 238 242 242 247 252
7 11 29 41 46 37 33 36 1 249 235 231 222 230 225 226 214 228 234 233 235 230 231 236 241 252 254 250 246 241 238 231 235 254 257 254 259 246 250 249 252 251 249
358 5 22 25 31 39 29 17 7 350 259 238 233 234 231 225 222 228 229 235 239 243 240 247 252 260 264 254 250 237 241 238 247 256 256 260 261 253 255 253 248 251 254
356 359 7 12 10 14 18 8 5 356 347 278 233 230 228 228 224 226 238 257 240 243 238 243 247 253 259 264 250 228 244 239 247 255 256 254 257 257 255 258 261 260 258
350 354 353 345 351 0 357 353 2 356 0 342 240 218 223 228 231 239 244 252 248 240 236 244 237 256 247 252 233 233 244 251 258 262 261 260 260 258 256 260 258 264 262
338 349 346 335 331 349 347 345 349 351 6 25 314 240 236 226 231 232 240 251 240 234 228 225 246 252 244 243 244 242 251 259 262 263 262 259 259 258 259 260 257 262 264
324 329 331 330 328 334 337 339 336 339 359 20 33 337 247 207 224 220 230 226 207 210 223 232 236 250 250 252 260 260 263 267 266 263 262 260 259 262 265 264 261 258 254
320 326 327 321 321 322 327 328 327 317 343 356 7 11 30 247 232 227 213 225 220 225 224 229 231 242 253 265 268 267 263 262 263 263 265 264 262 262 263 261 250 257 252
302 326 329 320 316 311 317 312 314 307 275 308 356 350 336 240 241 242 220 224 227 237 244 246 247 251 255 258 265 263 260 260 265 268 264 262 259 261 263 245 240 251 246
298 332 327 325 313 307 309 314 303 307 284 288 312 340 324 310 265 223 249 257 252 245 243 242 246 250 252 255 256 257 258 265 266 266 262 252 253 249 247 244 239 232 236
Height
3175 3175 3175 3175 3176 3179 3180 3181 3182 3184 3185 3187 3187 3187 3188 3188 3189 3189 3189 3189 3190 3190 3190 3190 3191 3191 3192 3193 3193 3194 3193 3194 3195 3197 3197 3198 3198 3199 3200 3201 3202 3203 3204
3176 3177 3175 3176 3177 3179 3180 3182 3182 3185 3186 3188 3188 3189 3190 3190 3190 3190 3190 3191 3191 3192 3192 3192 3192 3192 3193 3194 3195 3196 3196 3196 3197 3198 3198 3199 3200 3200 3201 3203 3204 3205 3206
3176 3177 3177 3177 3178 3179 3180 3181 3184 3185 3187 3188 3189 3189 3191 3191 3191 3191 3192 3192 3193 3193 3194 3194 3194 3194 3195 3196 3197 3198 3197 3199 3199 3200 3200 3201 3202 3202 3203 3204 3206 3207 3208
3176 3176 3177 3178 3179 3180 3180 3181 3184 3186 3187 3189 3190 3191 3192 3192 3192 3192 3192 3193 3193 3195 3195 3196 3196 3197 3197 3197 3199 3200 3200 3201 3201 3201 3201 3202 3203 3204 3205 3206 3207 3208 3209
3177 3177 3177 3178 3180 3180 3181 3182 3184 3186 3188 3189 3190 3191 3193 3193 3193 3193 3195 3195 3195 3196 3197 3197 3198 3198 3198 3199 3200 3201 3201 3202 3202 3203 3203 3204 3205 3206 3206 3207 3208 3210 3210
3177 3178 3179 3178 3180 3180 3182 3183 3185 3187 3188 3189 3191 3192 3193 3193 3194 3195 3195 3196 3196 3197 3198 3198 3199 3199 3200 3201 3201 3202 3203 3204 3204 3205 3206 3206 3207 3207 3208 3208 3210 3211 3212
3177 3177 3178 3180 3180 3180 3181 3183 3185 3187 3188 3190 3191 3193 3194 3195 3195 3196 3197 3198 3198 3198 3199 3199 3200 3200 3201 3202 3203 3203 3204 3205 3206 3206 3207 3208 3209 3210 3210 3210 3211 3212 3213
3177 3177 3178 3177 3179 3180 3180 3183 3185 3186 3188 3190 3191 3193 3195 3195 3196 3197 3198 3199 3199 3199 3199 3200 3201 3201 3203 3204 3205 3205 3205 3206 3207 3208 3209 3210 3210 3211 3211 3212 3212 3213 3214
3178 3179 3179 3179 3178 3180 3180 3180 3184 3186 3188 3190 3191 3193 3195 3196 3197 3198 3199 3199 3200 3200 3200 3201 3201 3202 3203 3205 3206 3206 3206 3207 3208 3208 3209 3210 3211 3211 3212 3212 3213 3213 3215
3180 3180 3179 3179 3181 3180 3180 3180 3181 3184 3186 3189 3191 3192 3193 3196 3196 3198 3199 3199 3199 3200 3200 3201 3202 3202 3204 3205 3206 3207 3208 3208 3208 3209 3210 3211 3212 3212 3213 3213 3213 3213 3214
3180 3180 3179 3179 3179 3179 3179 3179 3180 3181 3184 3187 3190 3192 3192 3194 3196 3197 3197 3199 3199 3200 3201 3200 3201 3202 3203 3205 3206 3208 3208 3208 3208 3210 3211 3212 3212 3213 3213 3213 3214 3214 3215
3179 3178 3177 3177 3175 3174 3174 3177 3178 3179 3182 3184 3187 3189 3192 3193 3194 3196 3197 3198 3199 3200 3200 3201 3201 3202 3203 3204 3206 3207 3208 3208 3209 3210 3211 3212 3212 3213 3214 3214 3214 3214 3215
3178 3177 3175 3173 3170 3170 3171 3174 3176 3178 3179 3182 3184 3186 3189 3192 3193 3195 3196 3197 3198 3199 3200 3201 3201 3202 3202 3203 3205 3206 3207 3208 3209 3210 3211 3212 3212 3213 3213 3214 3214 3214 3214
3175 3174 3173 3170 3162 3161 3165 3170 3172 3174 3177 3179 3182 3185 3187 3189 3192 3193 3195 3196 3197 3198 3199 3200 3200 3201 3201 3202 3203 3204 3206 3208 3208 3209 3210 3211 3212 3212 3212 3212 3213 3214 3213
3175 3173 3172 3169 3160 3149 3155 3164 3168 3172 3174 3177 3180 3182 3183 3186 3188 3191 3193 3194 3195 3197 3198 3199 3200 3200 3201 3201 3202 3203 3204 3206 3207 3208 3208 3209 3210 3210 3211 3211 3211 3210 3212
3175 3173 3172 3168 3166 3160 3160 3165 3168 3167 3171 3174 3177 3176 3179 3180 3183 3187 3190 3191 3193 3194 3196 3197 3198 3199 3199 3199 3200 3201 3202 3203 3204 3206 3207 3207 3208 3209 3209 3209 3210 3209 3210
3176 3174 3171 3169 3168 3166 3165 3165 3166 3166 3167 3170 3172 3173 3174 3177 3177 3183 3186 3188 3190 3191 3194 3195 3197 3198 3198 3198 3198 3198 3199 3200 3202 3203 3204 3205 3206 3206 3206 3206 3206 3208 3208
3180 3176 3172 3171 3169 3167 3166 3165 3165 3166 3166 3168 3168 3170 3172 3174 3177 3180 3183 3185 3187 3188 3189 3191 3193 3194 3195 3195 3195 3196 3196 3198 3199 3200 3201 3202 3203 3203 3203 3203 3204 3205 3205
3182 3178 3173 3171 3170 3169 3168 3168 3167 3165 3163 3163 3164 3166 3169 3171 3174 3176 3179 3180 3182 3184 3186 3187 3188 3190 3191 3191 3191 3192 3193 3195 3196 3197 3198 3197 3198 3200 3199 3199 3200 3201 3201
3181 3178 3173 3172 3171 3170 3169 3169 3166 3165 3161 3159 3159 3163 3166 3168 3170 3172 3175 3176 3177 3179 3181 3183 3184 3186 3186 3186 3185 3188 3190 3191 3192 3193 3194 3194 3195 3195 3195 3196 3196 3197 3197
3180 3176 3173 3172 3172 3170 3169 3168 3166 3164 3160 3156 3156 3159 3162 3165 3167 3169 3171 3173 3174 3176 3178 3180 3182 3182 3183 3182 3184 3186 3186 3187 3188 3189 3189 3190 3191 3191 3191 3191 3192 3192 3193
3179 3176 3172 3171 3170 3169 3170 3170 3167 3165 3162 3158 3157 3157 3158 3162 3166 3167 3169 3168 3168 3171 3174 3176 3178 3179 3179 3179 3182 3183 3183 3184 3184 3185 3185 3185 3186 3186 3186 3187 3187 3188 3188
3178 3176 3173 3170 3169 3168 3168 3169 3168 3165 3163 3161 3160 3159 3159 3160 3163 3165 3166 3166 3167 3170 3172 3173 3175 3176 3176 3179 3180 3181 3180 3180 3179 3180 3180 3181 3181 3180 3180 3181 3182 3183 3184
3176 3174 3171 3170 3169 3168 3167 3167 3167 3165 3163 3161 3160 3160 3159 3161 3161 3162 3163 3165 3166 3167 3168 3171 3171 3173 3174 3176 3176 3177 3177 3176 3175 3176 3176 3176 3176 3177 3178 3177 3178 3180 3180
3176 3172 3170 3170 3168 3167 3166 3166 3164 3162 3162 3159 3159 3159 3160 3160 3160 3158 3160 3163 3164 3165 3166 3166 3168 3170 3171 3171 3172 3173 3173 3173 3172 3172 3172 3172 3173 3173 3174 3174 3175 3175 3177
3174 3171 3170 3168 3168 3166 3164 3163 3161 3157 3158 3160 3157 3157 3158 3158 3159 3159 3159 3160 3162 3162 3163 3164 3165 3166 3167 3168 3168 3169 3170 3170 3170 3169 3168 3168 3169 3170 3171 3171 3172 3173 3173